GW3666 Weather Reports


time (UTC)temp
C
wind
direction
speed
KPH
gust
KPH
rain 1hr
cm
rain 24hr
cm
rain mn
cm
humidity
%
barometer
mb
20260503210618 28 330 3.2 4.8 0.00 0.00 0.00 46 1011.3
20260503210115 28 12 4.8 4.8 0.00 0.00 0.00 48 1011.2
20260503205611 28 332 6.4 9.7 0.00 0.00 0.00 47 1011.2
20260503205107 27 318 6.4 8.0 0.00 0.00 0.00 48 1011.3
20260503204604 27 332 4.8 8.0 0.00 0.00 0.00 53 1011.6
20260503204101 27 342 4.8 4.8 0.00 0.00 0.00 53 1011.5
20260503203558 27 343 6.4 9.7 0.00 0.00 0.00 49 1011.6
20260503203055 27 342 3.2 4.8 0.00 0.00 0.00 52 1011.7
20260503202553 27 10 6.4 8.0 0.00 0.00 0.00 52 1011.6
20260503202051 29 345 1.6 3.2 0.00 0.00 0.00 50 1011.7
20260503201549 27 25 3.2 3.2 0.00 0.00 0.00 48 1012.0
20260503201046 27 346 6.4 9.7 0.00 0.00 0.00 54 1012.0
20260503200542 27 348 0.0 0.0 0.00 0.00 0.00 54 1011.7
20260503200039 27 324 6.4 8.0 0.00 0.00 0.00 53 1012.1
20260503195536 26 308 4.8 4.8 0.00 0.00 0.00 50 1012.2
20260503195032 27 351 1.6 1.6 0.00 0.00 0.00 54 1012.3
20260503194530 27 29 0.0 0.0 0.00 0.00 0.00 55 1012.1
20260503194030 26 344 3.2 8.0 0.00 0.00 0.00 56 1012.4
20260503193527 27 301 4.8 8.0 0.00 0.00 0.00 51 1012.2
20260503193022 27 336 4.8 4.8 0.00 0.00 0.00 55 1012.5
20260503192518 27 10 4.8 4.8 0.00 0.00 0.00 54 1012.5
20260503192014 27 57 1.6 3.2 0.00 0.00 0.00 51 1012.5
20260503191511 26 64 0.0 1.6 0.00 0.00 0.00 56 1012.5
20260503191008 25 28 1.6 1.6 0.00 0.00 0.00 60 1012.8
20260503190505 26 30 1.6 1.6 0.00 0.00 0.00 56 1012.8
20260503190002 26 355 3.2 3.2 0.00 0.00 0.00 57 1012.9
20260503185458 26 31 1.6 1.6 0.00 0.00 0.00 53 1012.9
20260503184957 26 36 1.6 3.2 0.00 0.00 0.00 53 1012.9
20260503184454 26 8 3.2 4.8 0.00 0.00 0.00 56 1012.9
20260503183950 25 16 4.8 4.8 0.00 0.00 0.00 57 1012.9
20260503183447 25 16 4.8 4.8 0.00 0.00 0.00 56 1013.0
20260503182944 26 19 1.6 1.6 0.00 0.00 0.00 58 1013.2
20260503182443 25 20 0.0 0.0 0.00 0.00 0.00 55 1013.1
20260503181940 25 20 0.0 0.0 0.00 0.00 0.00 57 1013.3
20260503181437 24 339 3.2 3.2 0.00 0.00 0.00 60 1013.2
20260503180933 24 37 1.6 1.6 0.00 0.00 0.00 60 1013.1
20260503180431 23 339 4.8 4.8 0.00 0.00 0.00 60 1013.3
20260503175928 23 30 1.6 3.2 0.00 0.00 0.00 63 1013.2
20260503175426 23 330 4.8 4.8 0.00 0.00 0.00 64 1013.3
20260503174921 23 343 3.2 3.2 0.00 0.00 0.00 64 1013.4
20260503174420 23 273 8.0 9.7 0.00 0.00 0.00 63 1013.4
20260503173914 23 330 1.6 1.6 0.00 0.00 0.00 63 1013.5
20260503173411 23 326 4.8 8.0 0.00 0.00 0.00 64 1013.4
20260503172908 22 325 3.2 4.8 0.00 0.00 0.00 66 1013.6
20260503172405 22 324 4.8 4.8 0.00 0.00 0.00 68 1013.5
20260503171901 23 303 3.2 3.2 0.00 0.00 0.00 64 1013.5
20260503171358 22 15 4.8 8.0 0.00 0.00 0.00 65 1013.5
20260503170855 22 353 4.8 4.8 0.00 0.00 0.00 66 1013.4
20260503170352 22 307 3.2 3.2 0.00 0.00 0.00 65 1013.6
20260503150744 15 8 0.0 0.0 0.00 0.00 0.00 99 1014.0
20260503150240 13 8 0.0 0.0 0.00 0.00 0.00 99 1013.9
20260503140204 8 8 0.0 0.0 0.00 0.00 0.00 99 1013.5
20260503131134 8 8 0.0 0.0 0.00 0.00 0.00 99 1013.5
20260503130632 7 8 0.0 0.0 0.00 0.00 0.00 99 1013.6
20260503130129 7 8 0.0 0.0 0.00 0.00 0.00 99 1013.4
20260503110522 9 32 0.0 0.0 0.00 0.00 0.00 99 1013.6
20260503090409 10 5 0.0 0.0 0.00 0.00 0.00 99 1014.2
20260503081335 11 312 0.0 0.0 0.00 0.00 0.00 99 1014.3
20260503080832 10 356 0.0 0.0 0.00 0.00 0.00 99 1014.7
20260503080329 10 48 0.0 0.0 0.00 0.00 0.00 99 1014.3
20260503072759 10 309 0.0 0.0 0.00 0.00 0.00 99 1014.4
20260503072256 11 309 0.0 0.0 0.00 0.00 0.00 99 1014.3
20260503071752 11 309 0.0 0.0 0.00 0.00 0.00 99 1014.6
20260503071250 11 309 0.0 0.0 0.00 0.00 0.00 99 1014.3
20260503070746 11 309 0.0 0.0 0.00 0.00 0.00 99 1014.4
20260503070244 11 310 0.0 0.0 0.00 0.00 0.00 99 1014.2
20260503060203 12 26 0.0 0.0 0.00 0.00 0.00 97 1014.4
20260503054650 12 25 0.0 0.0 0.00 0.00 0.00 96 1014.4
20260503054147 12 25 0.0 0.0 0.00 0.00 0.00 96 1014.2
20260503053645 12 25 0.0 0.0 0.00 0.00 0.00 95 1014.3
20260503053144 12 25 0.0 0.0 0.00 0.00 0.00 95 1014.6
20260503052640 12 25 0.0 0.0 0.00 0.00 0.00 94 1014.5
20260503052136 12 317 0.0 0.0 0.00 0.00 0.00 94 1014.5
20260503051631 12 317 0.0 0.0 0.00 0.00 0.00 93 1014.4
20260503051129 12 317 0.0 0.0 0.00 0.00 0.00 93 1014.4
20260503050625 13 317 0.0 0.0 0.00 0.00 0.00 94 1014.2
20260503050122 13 317 0.0 0.0 0.00 0.00 0.00 92 1014.4
20260503045620 13 317 0.0 0.0 0.00 0.00 0.00 92 1014.4
20260503045117 13 317 0.0 0.0 0.00 0.00 0.00 92 1014.2
20260503044614 13 317 0.0 0.0 0.00 0.00 0.00 92 1014.0
20260503044111 13 317 0.0 0.0 0.00 0.00 0.00 91 1014.2
20260503043607 14 317 0.0 0.0 0.00 0.00 0.00 91 1014.1
20260503043104 15 317 0.0 0.0 0.00 0.00 0.00 90 1013.9
20260503042601 15 317 0.0 0.0 0.00 0.00 0.00 90 1014.1
20260503042057 15 317 0.0 0.0 0.00 0.00 0.00 89 1013.8
20260503041554 15 317 0.0 0.0 0.00 0.00 0.00 88 1013.6
20260503041052 15 317 0.0 0.0 0.00 0.00 0.00 87 1013.8
20260503040549 15 317 0.0 0.0 0.00 0.00 0.00 87 1013.8
20260503040046 16 317 0.0 0.0 0.00 0.00 0.00 86 1013.4
20260503035543 16 317 0.0 0.0 0.00 0.00 0.00 86 1013.2
20260503035041 16 317 0.0 0.0 0.00 0.00 0.00 84 1013.3
20260503034537 16 317 0.0 0.0 0.00 0.00 0.00 84 1013.3
20260503034035 16 317 0.0 0.0 0.00 0.00 0.00 84 1013.0
20260503033532 17 354 0.0 0.0 0.00 0.00 0.00 82 1013.0
20260503033030 17 354 0.0 0.0 0.00 0.00 0.00 81 1012.9
20260503032528 17 354 0.0 0.0 0.00 0.00 0.00 80 1012.8
20260503032025 18 354 0.0 0.0 0.00 0.00 0.00 78 1013.0
20260503031523 18 354 0.0 0.0 0.00 0.00 0.00 77 1012.8
20260503031020 18 354 0.0 0.0 0.00 0.00 0.00 76 1012.7
20260503030516 20 355 0.0 0.0 0.00 0.00 0.00 75 1012.8
20260503030014 20 354 0.0 0.0 0.00 0.00 0.00 72 1012.6
20260503025510 21 354 0.0 0.0 0.00 0.00 0.00 73 1012.3
20260503025008 21 355 0.0 0.0 0.00 0.00 0.00 70 1012.5
20260503024503 22 301 0.0 0.0 0.00 0.00 0.00 65 1012.6
20260503024001 22 348 0.0 0.0 0.00 0.00 0.00 63 1012.6
20260503023457 22 335 1.6 1.6 0.00 0.00 0.00 62 1012.6
20260503022954 22 330 0.0 1.6 0.00 0.00 0.00 63 1012.4
20260503022450 23 330 1.6 1.6 0.00 0.00 0.00 60 1012.5
20260503021945 23 354 1.6 1.6 0.00 0.00 0.00 58 1012.5
20260503021442 23 301 3.2 3.2 0.00 0.00 0.00 61 1012.3
20260503020940 23 325 3.2 3.2 0.00 0.00 0.00 61 1012.3
20260503020437 23 29 3.2 3.2 0.00 0.00 0.00 60 1012.4
20260503015934 23 333 1.6 1.6 0.00 0.00 0.00 59 1012.2
20260503015430 23 346 3.2 3.2 0.00 0.00 0.00 58 1012.3
20260503014926 23 328 4.8 4.8 0.00 0.00 0.00 59 1012.5
20260503014423 23 337 3.2 4.8 0.00 0.00 0.00 60 1012.4
20260503013921 23 311 1.6 1.6 0.00 0.00 0.00 59 1012.4
20260503013413 23 1 0.0 1.6 0.00 0.00 0.00 60 1012.5
20260503012910 23 315 3.2 3.2 0.00 0.00 0.00 62 1012.4
20260503012408 23 347 3.2 3.2 0.00 0.00 0.00 57 1012.6
20260503011904 23 351 4.8 4.8 0.00 0.00 0.00 58 1012.4
20260503011401 23 348 6.4 8.0 0.00 0.00 0.00 59 1012.6
20260503010857 23 347 8.0 11.3 0.00 0.00 0.00 59 1012.4
20260503010354 23 336 4.8 8.0 0.00 0.00 0.00 59 1012.4
20260503005851 23 319 4.8 4.8 0.00 0.00 0.00 59 1012.3
20260503005349 23 38 0.0 1.6 0.00 0.00 0.00 59 1012.6
20260503004845 23 330 3.2 3.2 0.00 0.00 0.00 60 1012.7
20260503004342 24 338 4.8 8.0 0.00 0.00 0.00 60 1012.4
20260503003840 23 330 6.4 8.0 0.00 0.00 0.00 60 1012.7
20260503003336 24 328 4.8 8.0 0.00 0.00 0.00 58 1012.7
20260503002832 24 344 4.8 4.8 0.00 0.00 0.00 60 1012.6
20260503002325 25 43 0.0 0.0 0.00 0.00 0.00 57 1012.6
20260503001821 25 327 3.2 3.2 0.00 0.00 0.00 57 1012.5
20260503001317 25 327 11.3 11.3 0.00 0.00 0.00 55 1012.6
20260503000815 25 291 6.4 8.0 0.00 0.00 0.00 54 1012.4
20260503000313 25 321 3.2 3.2 0.00 0.00 0.00 57 1012.7
20260502235809 25 309 8.0 8.0 0.00 0.00 0.00 57 1012.8
20260502235306 25 329 4.8 4.8 0.00 0.00 0.00 55 1012.7
20260502234803 25 341 4.8 8.0 0.00 0.00 0.00 57 1012.7
20260502234300 25 310 9.7 12.9 0.00 0.00 0.00 56 1012.8
20260502233756 25 286 4.8 4.8 0.00 0.00 0.00 57 1013.0
20260502233253 25 28 6.4 9.7 0.00 0.00 0.00 59 1012.9
20260502232749 25 310 3.2 4.8 0.00 0.00 0.00 58 1013.2
20260502232246 25 11 4.8 8.0 0.00 0.00 0.00 55 1012.9
20260502231743 24 28 3.2 3.2 0.00 0.00 0.00 59 1013.4
20260502231240 25 268 6.4 8.0 0.00 0.00 0.00 60 1013.1
20260502230739 25 325 8.0 9.7 0.00 0.00 0.00 57 1013.4
20260502230237 25 5 6.4 9.7 0.00 0.00 0.00 58 1013.3
20260502225733 25 342 4.8 4.8 0.00 0.00 0.00 55 1013.3
20260502225230 25 358 8.0 9.7 0.00 0.00 0.00 53 1013.6
20260502224726 25 288 3.2 3.2 0.00 0.00 0.00 56 1013.5
20260502224223 24 333 4.8 4.8 0.00 0.00 0.00 60 1013.8
20260502223720 24 305 4.8 4.8 0.00 0.00 0.00 57 1013.8
20260502223218 24 288 6.4 8.0 0.00 0.00 0.00 62 1013.8
20260502222716 24 319 3.2 4.8 0.00 0.00 0.00 57 1014.0
20260502222212 24 336 4.8 4.8 0.00 0.00 0.00 57 1014.0
20260502221708 24 330 3.2 3.2 0.00 0.00 0.00 61 1014.0
20260502221205 23 9 4.8 8.0 0.00 0.00 0.00 60 1014.1
20260502220701 23 8 8.0 9.7 0.00 0.00 0.00 57 1014.2
20260502220158 23 8 4.8 9.7 0.00 0.00 0.00 61 1014.1
20260502215655 23 324 6.4 9.7 0.00 0.00 0.00 62 1014.3
20260502215151 23 319 4.8 8.0 0.00 0.00 0.00 61 1014.4
20260502214649 23 352 4.8 4.8 0.00 0.00 0.00 60 1014.2
20260502214146 23 303 4.8 4.8 0.00 0.00 0.00 61 1014.4
20260502213643 23 10 4.8 9.7 0.00 0.00 0.00 63 1014.4
20260502213140 22 9 4.8 4.8 0.00 0.00 0.00 64 1014.6
20260502212639 22 318 4.8 4.8 0.00 0.00 0.00 62 1014.6
20260502212137 23 338 1.6 1.6 0.00 0.00 0.00 61 1014.6
20260502211632 22 46 1.6 3.2 0.00 0.00 0.00 64 1014.7
20260502211130 23 301 3.2 3.2 0.00 0.00 0.00 63 1014.7